Year,Month,Day,Hour,Minute,Value (Times are PST for windspeed in km/hr)
2007,05,10,00,00,1.10
2007,05,10,00,01,0.90
2007,05,10,00,02,1.20
2007,05,10,00,03,1.60
2007,05,10,00,04,1.60
2007,05,10,00,05,1.90
2007,05,10,00,06,1.50
2007,05,10,00,07,1.30
2007,05,10,00,08,0.50
2007,05,10,00,09,0.00
2007,05,10,00,10,0.00
2007,05,10,00,11,1.90
2007,05,10,00,12,2.60
2007,05,10,00,13,2.10
2007,05,10,00,14,2.00
2007,05,10,00,15,0.50
2007,05,10,00,16,0.90
2007,05,10,00,17,0.70
2007,05,10,00,18,1.80
2007,05,10,00,19,2.30
2007,05,10,00,20,1.70
2007,05,10,00,21,1.20
2007,05,10,00,22,0.70
2007,05,10,00,23,0.00
2007,05,10,00,24,0.00
2007,05,10,00,25,0.20
2007,05,10,00,26,0.70
2007,05,10,00,27,2.10
2007,05,10,00,28,2.10
2007,05,10,00,29,3.20
2007,05,10,00,30,4.40
2007,05,10,00,31,3.90
2007,05,10,00,32,2.60
2007,05,10,00,33,4.10
2007,05,10,00,34,4.70
2007,05,10,00,35,4.30
2007,05,10,00,36,3.20
2007,05,10,00,37,3.60
2007,05,10,00,38,3.20
2007,05,10,00,39,0.80
2007,05,10,00,40,0.00
2007,05,10,00,41,0.90
2007,05,10,00,42,0.70
2007,05,10,00,43,0.20
2007,05,10,00,44,0.90
2007,05,10,00,45,0.90
2007,05,10,00,46,0.00
2007,05,10,00,47,0.00
2007,05,10,00,48,0.70
2007,05,10,00,49,1.60
2007,05,10,00,50,2.40
2007,05,10,00,51,3.00
2007,05,10,00,52,4.70
2007,05,10,00,53,5.30
2007,05,10,00,54,3.00
2007,05,10,00,55,2.10
2007,05,10,00,56,0.90
2007,05,10,00,57,1.40
2007,05,10,00,58,3.40
2007,05,10,00,59,3.00
2007,05,10,01,00,3.30
2007,05,10,01,01,3.80
2007,05,10,01,02,4.10
2007,05,10,01,03,3.30
2007,05,10,01,04,2.80
2007,05,10,01,05,2.90
2007,05,10,01,06,3.70
2007,05,10,01,07,3.00
2007,05,10,01,08,1.50
2007,05,10,01,09,0.70
2007,05,10,01,10,1.50
2007,05,10,01,11,1.90
2007,05,10,01,12,1.80
2007,05,10,01,13,2.20
2007,05,10,01,14,1.80
2007,05,10,01,15,0.60
2007,05,10,01,16,0.50
2007,05,10,01,17,1.30
2007,05,10,01,18,1.20
2007,05,10,01,19,0.80
2007,05,10,01,20,0.80
2007,05,10,01,21,0.50
2007,05,10,01,22,0.10
2007,05,10,01,23,0.00
2007,05,10,01,24,0.20
2007,05,10,01,25,0.80
2007,05,10,01,26,1.50
2007,05,10,01,27,0.60
2007,05,10,01,28,0.00
2007,05,10,01,29,0.00
2007,05,10,01,30,0.00
2007,05,10,01,31,0.00
2007,05,10,01,32,0.00
2007,05,10,01,33,0.00
2007,05,10,01,34,0.00
2007,05,10,01,35,0.00
2007,05,10,01,36,0.00
2007,05,10,01,37,0.00
2007,05,10,01,38,0.00
2007,05,10,01,39,0.00
2007,05,10,01,40,0.00
2007,05,10,01,41,0.00
2007,05,10,01,42,0.00
2007,05,10,01,43,0.00
2007,05,10,01,44,0.00
2007,05,10,01,45,0.00
2007,05,10,01,46,0.00
2007,05,10,01,47,0.00
2007,05,10,01,48,0.00
2007,05,10,01,49,0.00
2007,05,10,01,50,0.00
2007,05,10,01,51,0.00
2007,05,10,01,52,0.00
2007,05,10,01,53,0.00
2007,05,10,01,54,0.00
2007,05,10,01,55,0.00
2007,05,10,01,56,0.00
2007,05,10,01,57,0.00
2007,05,10,01,58,0.00
2007,05,10,01,59,0.00
2007,05,10,02,00,0.00
2007,05,10,02,01,0.00
2007,05,10,02,02,0.00
2007,05,10,02,03,0.00
2007,05,10,02,04,0.00
2007,05,10,02,05,0.00
2007,05,10,02,06,0.00
2007,05,10,02,07,0.00
2007,05,10,02,08,0.00
2007,05,10,02,09,0.00
2007,05,10,02,10,0.00
2007,05,10,02,11,1.30
2007,05,10,02,12,1.10
2007,05,10,02,13,1.60
2007,05,10,02,14,1.70
2007,05,10,02,15,1.80
2007,05,10,02,16,1.90
2007,05,10,02,17,3.50
2007,05,10,02,18,2.70
2007,05,10,02,19,2.10
2007,05,10,02,20,2.50
2007,05,10,02,21,2.30
2007,05,10,02,22,2.80
2007,05,10,02,23,2.60
2007,05,10,02,24,1.90
2007,05,10,02,25,1.90
2007,05,10,02,26,2.10
2007,05,10,02,27,2.50
2007,05,10,02,28,2.60
2007,05,10,02,29,2.60
2007,05,10,02,30,3.20
2007,05,10,02,31,3.60
2007,05,10,02,32,3.50
2007,05,10,02,33,4.00
2007,05,10,02,34,3.20
2007,05,10,02,35,3.30
2007,05,10,02,36,2.20
2007,05,10,02,37,1.90
2007,05,10,02,38,2.30
2007,05,10,02,39,2.00
2007,05,10,02,40,2.80
2007,05,10,02,41,1.90
2007,05,10,02,42,1.90
2007,05,10,02,43,2.80
2007,05,10,02,44,2.40
2007,05,10,02,45,1.60
2007,05,10,02,46,1.60
2007,05,10,02,47,1.60
2007,05,10,02,48,1.60
2007,05,10,02,49,1.50
2007,05,10,02,50,0.00
2007,05,10,02,51,0.00
2007,05,10,02,52,0.00
2007,05,10,02,53,0.00
2007,05,10,02,54,0.00
2007,05,10,02,55,0.00
2007,05,10,02,56,0.00
2007,05,10,02,57,0.00
2007,05,10,02,58,0.00
2007,05,10,02,59,0.00
2007,05,10,03,00,0.00
2007,05,10,03,01,0.00
2007,05,10,03,02,0.00
2007,05,10,03,03,0.30
2007,05,10,03,04,0.50
2007,05,10,03,05,0.00
2007,05,10,03,06,0.20
2007,05,10,03,07,0.20
2007,05,10,03,08,0.20
2007,05,10,03,09,0.20
2007,05,10,03,10,0.00
2007,05,10,03,11,0.00
2007,05,10,03,12,0.00
2007,05,10,03,13,0.20
2007,05,10,03,14,0.30
2007,05,10,03,15,0.00
2007,05,10,03,16,0.00
2007,05,10,03,17,0.00
2007,05,10,03,18,0.00
2007,05,10,03,19,0.00
2007,05,10,03,20,0.00
2007,05,10,03,21,0.00
2007,05,10,03,22,0.00
2007,05,10,03,23,0.00
2007,05,10,03,24,0.00
2007,05,10,03,25,0.00
2007,05,10,03,26,0.00
2007,05,10,03,27,0.20
2007,05,10,03,28,0.90
2007,05,10,03,29,0.20
2007,05,10,03,30,0.10
2007,05,10,03,31,0.30
2007,05,10,03,32,0.20
2007,05,10,03,33,1.40
2007,05,10,03,34,1.00
2007,05,10,03,35,0.60
2007,05,10,03,36,0.30
2007,05,10,03,37,0.00
2007,05,10,03,38,0.50
2007,05,10,03,39,0.30
2007,05,10,03,40,0.10
2007,05,10,03,41,0.40
2007,05,10,03,42,1.00
2007,05,10,03,43,1.90
2007,05,10,03,44,1.80
2007,05,10,03,45,1.20
2007,05,10,03,46,1.10
2007,05,10,03,47,1.40
2007,05,10,03,48,2.00
2007,05,10,03,49,2.50
2007,05,10,03,50,2.10
2007,05,10,03,51,4.10
2007,05,10,03,52,2.20
2007,05,10,03,53,0.80
2007,05,10,03,54,0.00
2007,05,10,03,55,0.00
2007,05,10,03,56,0.00
2007,05,10,03,57,0.20
2007,05,10,03,58,1.30
2007,05,10,03,59,2.30
2007,05,10,04,00,2.00
2007,05,10,04,01,1.70
2007,05,10,04,02,1.60
2007,05,10,04,03,1.60
2007,05,10,04,04,1.60
2007,05,10,04,05,1.60
2007,05,10,04,06,0.90
2007,05,10,04,07,0.10
2007,05,10,04,08,0.00
2007,05,10,04,09,0.00
2007,05,10,04,10,0.00
2007,05,10,04,11,0.00
2007,05,10,04,12,0.00
2007,05,10,04,13,0.20
2007,05,10,04,14,0.00
2007,05,10,04,15,0.00
2007,05,10,04,16,0.70
2007,05,10,04,17,1.90
2007,05,10,04,18,0.60
2007,05,10,04,19,0.70
2007,05,10,04,20,0.60
2007,05,10,04,21,2.00
2007,05,10,04,22,0.60
2007,05,10,04,23,2.00
2007,05,10,04,24,1.90
2007,05,10,04,25,1.10
2007,05,10,04,26,0.60
2007,05,10,04,27,0.00
2007,05,10,04,28,0.00
2007,05,10,04,29,0.00
2007,05,10,04,30,0.00
2007,05,10,04,31,0.00
2007,05,10,04,32,0.00
2007,05,10,04,33,0.00
2007,05,10,04,34,0.00
2007,05,10,04,35,0.00
2007,05,10,04,36,0.60
2007,05,10,04,37,0.80
2007,05,10,04,38,0.30
2007,05,10,04,39,1.60
2007,05,10,04,40,1.60
2007,05,10,04,41,0.90
2007,05,10,04,42,0.60
2007,05,10,04,43,0.20
2007,05,10,04,44,0.60
2007,05,10,04,45,2.10
2007,05,10,04,46,2.20
2007,05,10,04,47,0.60
2007,05,10,04,48,0.60
2007,05,10,04,49,1.00
2007,05,10,04,50,0.30
2007,05,10,04,51,0.00
2007,05,10,04,52,0.00
2007,05,10,04,53,0.00
2007,05,10,04,54,0.00
2007,05,10,04,55,0.00
2007,05,10,04,56,0.00
2007,05,10,04,57,0.00
2007,05,10,04,58,0.00
2007,05,10,04,59,0.00
2007,05,10,05,00,0.00
2007,05,10,05,01,0.00
2007,05,10,05,02,0.00
2007,05,10,05,03,0.00
2007,05,10,05,04,0.00
2007,05,10,05,05,0.00
2007,05,10,05,06,0.00
2007,05,10,05,07,0.00
2007,05,10,05,08,0.00
2007,05,10,05,09,0.00
2007,05,10,05,10,0.00
2007,05,10,05,11,0.00
2007,05,10,05,12,0.00
2007,05,10,05,13,0.00
2007,05,10,05,14,0.00
2007,05,10,05,15,0.00
2007,05,10,05,16,0.00
2007,05,10,05,17,0.00
2007,05,10,05,18,0.00
2007,05,10,05,19,0.00
2007,05,10,05,20,0.00
2007,05,10,05,21,0.40
2007,05,10,05,22,0.50
2007,05,10,05,23,0.40
2007,05,10,05,24,0.90
2007,05,10,05,25,1.30
2007,05,10,05,26,0.60
2007,05,10,05,27,0.30
2007,05,10,05,28,0.30
2007,05,10,05,29,0.30
2007,05,10,05,30,0.70
2007,05,10,05,31,0.10
2007,05,10,05,32,0.50
2007,05,10,05,33,0.00
2007,05,10,05,34,0.30
2007,05,10,05,35,0.00
2007,05,10,05,36,0.00
2007,05,10,05,37,0.00
2007,05,10,05,38,0.00
2007,05,10,05,39,0.00
2007,05,10,05,40,0.00
2007,05,10,05,41,0.00
2007,05,10,05,42,0.00
2007,05,10,05,43,0.00
2007,05,10,05,44,0.00
2007,05,10,05,45,0.00
2007,05,10,05,46,0.00
2007,05,10,05,47,0.00
2007,05,10,05,48,0.00
2007,05,10,05,49,0.00
2007,05,10,05,50,0.00
2007,05,10,05,51,0.00
2007,05,10,05,52,0.00
2007,05,10,05,53,0.00
2007,05,10,05,54,0.00
2007,05,10,05,55,0.00
2007,05,10,05,56,0.00
2007,05,10,05,57,0.00
2007,05,10,05,58,0.00
2007,05,10,05,59,0.00
2007,05,10,06,00,0.00
2007,05,10,06,01,0.00
2007,05,10,06,02,0.00
2007,05,10,06,03,0.00
2007,05,10,06,04,0.00
2007,05,10,06,05,0.00
2007,05,10,06,06,0.00
2007,05,10,06,07,0.00
2007,05,10,06,08,0.00
2007,05,10,06,09,0.00
2007,05,10,06,10,0.00
2007,05,10,06,11,0.00
2007,05,10,06,12,0.00
2007,05,10,06,13,0.00
2007,05,10,06,14,0.00
2007,05,10,06,15,0.00
2007,05,10,06,16,0.00
2007,05,10,06,17,0.00
2007,05,10,06,18,0.00
2007,05,10,06,19,0.00
2007,05,10,06,20,0.00
2007,05,10,06,21,0.00
2007,05,10,06,22,0.00
2007,05,10,06,23,0.40
2007,05,10,06,24,0.00
2007,05,10,06,25,0.20
2007,05,10,06,26,0.50
2007,05,10,06,27,0.00
2007,05,10,06,28,0.00
2007,05,10,06,29,0.00
2007,05,10,06,30,0.10
2007,05,10,06,31,1.30
2007,05,10,06,32,1.30
2007,05,10,06,33,0.50
2007,05,10,06,34,0.10
2007,05,10,06,35,0.10
2007,05,10,06,36,0.10
2007,05,10,06,37,0.00
2007,05,10,06,38,0.00
2007,05,10,06,39,0.00
2007,05,10,06,40,0.00
2007,05,10,06,41,0.00
2007,05,10,06,42,0.80
2007,05,10,06,43,0.90
2007,05,10,06,44,2.80
2007,05,10,06,45,1.80
2007,05,10,06,46,1.70
2007,05,10,06,47,1.40
2007,05,10,06,48,0.00
2007,05,10,06,49,0.00
2007,05,10,06,50,0.00
2007,05,10,06,51,0.70
2007,05,10,06,52,0.30
2007,05,10,06,53,0.00
2007,05,10,06,54,0.00
2007,05,10,06,55,0.00
2007,05,10,06,56,0.00
2007,05,10,06,57,0.00
2007,05,10,06,58,0.00
2007,05,10,06,59,0.00
2007,05,10,07,00,0.00
2007,05,10,07,01,0.00
2007,05,10,07,02,0.00
2007,05,10,07,03,0.00
2007,05,10,07,04,0.10
2007,05,10,07,05,0.10
2007,05,10,07,06,0.20
2007,05,10,07,07,0.00
2007,05,10,07,08,0.00
2007,05,10,07,09,0.00
2007,05,10,07,10,0.00
2007,05,10,07,11,0.00
2007,05,10,07,12,0.00
2007,05,10,07,13,0.00
2007,05,10,07,14,0.00
2007,05,10,07,15,0.00
2007,05,10,07,16,0.00
2007,05,10,07,17,0.00
2007,05,10,07,18,0.00
2007,05,10,07,19,0.00
2007,05,10,07,20,0.00
2007,05,10,07,21,0.00
2007,05,10,07,22,0.00
2007,05,10,07,23,0.00
2007,05,10,07,24,0.00
2007,05,10,07,25,0.00
2007,05,10,07,26,0.00
2007,05,10,07,27,0.00
2007,05,10,07,28,0.00
2007,05,10,07,29,0.00
2007,05,10,07,30,0.00
2007,05,10,07,31,0.00
2007,05,10,07,32,0.00
2007,05,10,07,33,0.00
2007,05,10,07,34,0.00
2007,05,10,07,35,0.00
2007,05,10,07,36,0.00
2007,05,10,07,37,0.00
2007,05,10,07,38,0.00
2007,05,10,07,39,0.00
2007,05,10,07,40,0.00
2007,05,10,07,41,0.00
2007,05,10,07,42,0.00
2007,05,10,07,43,0.00
2007,05,10,07,44,0.00
2007,05,10,07,45,0.00
2007,05,10,07,46,0.00
2007,05,10,07,47,0.00
2007,05,10,07,48,0.00
2007,05,10,07,49,0.00
2007,05,10,07,50,0.00
2007,05,10,07,51,0.00
2007,05,10,07,52,0.00
2007,05,10,07,53,0.00
2007,05,10,07,54,0.00
2007,05,10,07,55,0.00
2007,05,10,07,56,0.00
2007,05,10,07,57,0.00
2007,05,10,07,58,0.00
2007,05,10,07,59,0.00
2007,05,10,08,00,0.00
2007,05,10,08,01,0.00
2007,05,10,08,02,0.70
2007,05,10,08,03,0.60
2007,05,10,08,04,0.30
2007,05,10,08,05,1.30
2007,05,10,08,06,0.40
2007,05,10,08,07,0.80
2007,05,10,08,08,2.30
2007,05,10,08,09,3.00
2007,05,10,08,10,1.90
2007,05,10,08,11,1.40
2007,05,10,08,12,0.20
2007,05,10,08,13,2.30
2007,05,10,08,14,2.20
2007,05,10,08,15,2.00
2007,05,10,08,16,3.20
2007,05,10,08,17,2.90
2007,05,10,08,18,3.50
2007,05,10,08,19,2.20
2007,05,10,08,20,3.10
2007,05,10,08,21,1.50
2007,05,10,08,22,3.10
2007,05,10,08,23,3.40
2007,05,10,08,24,3.40
2007,05,10,08,25,2.00
2007,05,10,08,26,1.80
2007,05,10,08,27,2.40
2007,05,10,08,28,4.70
2007,05,10,08,29,1.40
2007,05,10,08,30,0.90
2007,05,10,08,31,1.60
2007,05,10,08,32,1.60
2007,05,10,08,33,1.60
2007,05,10,08,34,2.20
2007,05,10,08,35,1.60
2007,05,10,08,36,2.00
2007,05,10,08,37,3.50
2007,05,10,08,38,2.60
2007,05,10,08,39,2.30
2007,05,10,08,40,0.00
2007,05,10,08,41,2.00
2007,05,10,08,42,1.50
2007,05,10,08,43,0.80
2007,05,10,08,44,0.80
2007,05,10,08,45,0.20
2007,05,10,08,46,4.30
2007,05,10,08,47,1.40
2007,05,10,08,48,4.30
2007,05,10,08,49,3.10
2007,05,10,08,50,3.30
2007,05,10,08,51,1.70
2007,05,10,08,52,2.00
2007,05,10,08,53,4.10
2007,05,10,08,54,4.50
2007,05,10,08,55,5.10
2007,05,10,08,56,6.40
2007,05,10,08,57,7.50
2007,05,10,08,58,5.80
2007,05,10,08,59,7.20
2007,05,10,09,00,7.10
2007,05,10,09,01,5.50
2007,05,10,09,02,3.70
2007,05,10,09,03,4.30
2007,05,10,09,04,3.90
2007,05,10,09,05,4.80
2007,05,10,09,06,2.40
2007,05,10,09,07,1.70
2007,05,10,09,08,4.40
2007,05,10,09,09,3.50
2007,05,10,09,10,3.20
2007,05,10,09,11,3.10
2007,05,10,09,12,6.00
2007,05,10,09,13,8.30
2007,05,10,09,14,7.60
2007,05,10,09,15,5.10
2007,05,10,09,16,4.40
2007,05,10,09,17,4.30
2007,05,10,09,18,5.20
2007,05,10,09,19,5.50
2007,05,10,09,20,7.00
2007,05,10,09,21,6.70
2007,05,10,09,22,6.00
2007,05,10,09,23,2.30
2007,05,10,09,24,4.00
2007,05,10,09,25,3.50
2007,05,10,09,26,2.30
2007,05,10,09,27,1.10
2007,05,10,09,28,2.20
2007,05,10,09,29,2.30
2007,05,10,09,30,3.60
2007,05,10,09,31,2.90
2007,05,10,09,32,4.70
2007,05,10,09,33,7.20
2007,05,10,09,34,3.20
2007,05,10,09,35,4.80
2007,05,10,09,36,5.30
2007,05,10,09,37,3.20
2007,05,10,09,38,4.00
2007,05,10,09,39,4.10
2007,05,10,09,40,5.10
2007,05,10,09,41,6.90
2007,05,10,09,42,6.40
2007,05,10,09,43,4.20
2007,05,10,09,44,7.30
2007,05,10,09,45,6.50
2007,05,10,09,46,5.00
2007,05,10,09,47,4.80
2007,05,10,09,48,9.10
2007,05,10,09,49,4.30
2007,05,10,09,50,9.50
2007,05,10,09,51,7.80
2007,05,10,09,52,5.50
2007,05,10,09,53,3.20
2007,05,10,09,54,8.20
2007,05,10,09,55,9.30
2007,05,10,09,56,8.90
2007,05,10,09,57,7.70
2007,05,10,09,58,6.90
2007,05,10,09,59,6.40
2007,05,10,10,00,9.50
2007,05,10,10,01,8.80
2007,05,10,10,02,7.90
2007,05,10,10,03,6.80
2007,05,10,10,04,2.40
2007,05,10,10,05,3.60
2007,05,10,10,06,7.00
2007,05,10,10,07,5.40
2007,05,10,10,08,3.10
2007,05,10,10,09,4.60
2007,05,10,10,10,6.70
2007,05,10,10,11,8.20
2007,05,10,10,12,6.40
2007,05,10,10,13,3.90
2007,05,10,10,14,7.90
2007,05,10,10,15,6.40
2007,05,10,10,16,6.90
2007,05,10,10,17,8.20
2007,05,10,10,18,7.50
2007,05,10,10,19,5.30
2007,05,10,10,20,5.50
2007,05,10,10,21,3.80
2007,05,10,10,22,7.00
2007,05,10,10,23,6.20
2007,05,10,10,24,5.40
2007,05,10,10,25,5.10
2007,05,10,10,26,10.20
2007,05,10,10,27,10.20
2007,05,10,10,28,7.00
2007,05,10,10,29,8.10
2007,05,10,10,30,8.00
2007,05,10,10,31,7.50
2007,05,10,10,32,9.60
2007,05,10,10,33,9.60
2007,05,10,10,34,7.90
2007,05,10,10,35,8.90
2007,05,10,10,36,7.80
2007,05,10,10,37,8.40
2007,05,10,10,38,10.30
2007,05,10,10,39,9.60
2007,05,10,10,40,6.20
2007,05,10,10,41,4.70
2007,05,10,10,42,5.40
2007,05,10,10,43,6.80
2007,05,10,10,44,7.90
2007,05,10,10,45,6.70
2007,05,10,10,46,5.70
2007,05,10,10,47,5.20
2007,05,10,10,48,6.00
2007,05,10,10,49,11.30
2007,05,10,10,50,8.40
2007,05,10,10,51,10.10
2007,05,10,10,52,8.30
2007,05,10,10,53,9.10
2007,05,10,10,54,13.50
2007,05,10,10,55,7.70
2007,05,10,10,56,4.70
2007,05,10,10,57,6.80
2007,05,10,10,58,6.00
2007,05,10,10,59,6.40
2007,05,10,11,00,8.40
2007,05,10,11,01,4.60
2007,05,10,11,02,6.20
2007,05,10,11,03,8.00
2007,05,10,11,04,8.20
2007,05,10,11,05,6.90
2007,05,10,11,06,5.10
2007,05,10,11,07,6.30
2007,05,10,11,08,5.10
2007,05,10,11,09,5.00
2007,05,10,11,10,3.80
2007,05,10,11,11,6.60
2007,05,10,11,12,10.40
2007,05,10,11,13,9.60
2007,05,10,11,14,9.60
2007,05,10,11,15,9.60
2007,05,10,11,16,9.60
2007,05,10,11,17,9.20
2007,05,10,11,18,2.00
2007,05,10,11,19,5.40
2007,05,10,11,20,9.00
2007,05,10,11,21,6.40
2007,05,10,11,22,3.60
2007,05,10,11,23,2.30
2007,05,10,11,24,12.90
2007,05,10,11,25,9.00
2007,05,10,11,26,6.20
2007,05,10,11,27,6.50
2007,05,10,11,28,6.70
2007,05,10,11,29,5.20
2007,05,10,11,30,7.20
2007,05,10,11,31,9.20
2007,05,10,11,32,10.90
2007,05,10,11,33,6.00
2007,05,10,11,34,8.10
2007,05,10,11,35,12.90
2007,05,10,11,36,5.00
2007,05,10,11,37,5.00
2007,05,10,11,38,6.40
2007,05,10,11,39,3.90
2007,05,10,11,40,7.80
2007,05,10,11,41,11.00
2007,05,10,11,42,9.50
2007,05,10,11,43,6.80
2007,05,10,11,44,6.50
2007,05,10,11,45,10.30
2007,05,10,11,46,5.30
2007,05,10,11,47,5.50
2007,05,10,11,48,6.80
2007,05,10,11,49,8.10
2007,05,10,11,50,4.60
2007,05,10,11,51,9.20
2007,05,10,11,52,7.50
2007,05,10,11,53,8.20
2007,05,10,11,54,9.00
2007,05,10,11,55,6.80
2007,05,10,11,56,5.60
2007,05,10,11,57,9.50
2007,05,10,11,58,6.70
2007,05,10,11,59,8.20
2007,05,10,12,00,3.10
2007,05,10,12,01,9.90
2007,05,10,12,02,6.60
2007,05,10,12,03,6.30
2007,05,10,12,04,4.60
2007,05,10,12,05,9.30
2007,05,10,12,06,7.10
2007,05,10,12,07,6.00
2007,05,10,12,08,6.90
2007,05,10,12,09,5.60
2007,05,10,12,10,9.80
2007,05,10,12,11,5.80
2007,05,10,12,12,4.70
2007,05,10,12,13,9.20
2007,05,10,12,14,7.90
2007,05,10,12,15,7.40
2007,05,10,12,16,7.80
2007,05,10,12,17,2.70
2007,05,10,12,18,3.40
2007,05,10,12,19,5.00
2007,05,10,12,20,7.00
2007,05,10,12,21,6.00
2007,05,10,12,22,5.00
2007,05,10,12,23,3.90
2007,05,10,12,24,6.40
2007,05,10,12,25,11.90
2007,05,10,12,26,9.10
2007,05,10,12,27,6.40
2007,05,10,12,28,10.50
2007,05,10,12,29,11.90
2007,05,10,12,30,6.70
2007,05,10,12,31,6.40
2007,05,10,12,32,6.40
2007,05,10,12,33,6.40
2007,05,10,12,34,6.50
2007,05,10,12,35,5.70
2007,05,10,12,36,10.10
2007,05,10,12,37,5.90
2007,05,10,12,38,6.20
2007,05,10,12,39,10.90
2007,05,10,12,40,11.90
2007,05,10,12,41,10.80
2007,05,10,12,42,4.30
2007,05,10,12,43,8.50
2007,05,10,12,44,8.10
2007,05,10,12,45,6.50
2007,05,10,12,46,8.90
2007,05,10,12,47,4.70
2007,05,10,12,48,7.60
2007,05,10,12,49,3.70
2007,05,10,12,50,4.50
2007,05,10,12,51,7.80
2007,05,10,12,52,8.70
2007,05,10,12,53,8.00
2007,05,10,12,54,6.20
2007,05,10,12,55,9.70
2007,05,10,12,56,11.60
2007,05,10,12,57,12.20
2007,05,10,12,58,10.60
2007,05,10,12,59,7.20
2007,05,10,13,00,6.10
2007,05,10,13,01,8.00
2007,05,10,13,02,9.10
2007,05,10,13,03,9.50
2007,05,10,13,04,5.40
2007,05,10,13,05,7.50
2007,05,10,13,06,6.70
2007,05,10,13,07,7.20
2007,05,10,13,08,7.90
2007,05,10,13,09,11.80
2007,05,10,13,10,10.80
2007,05,10,13,11,8.40
2007,05,10,13,12,10.50
2007,05,10,13,13,8.80
2007,05,10,13,14,10.50
2007,05,10,13,15,8.70
2007,05,10,13,16,10.00
2007,05,10,13,17,10.30
2007,05,10,13,18,11.00
2007,05,10,13,19,7.50
2007,05,10,13,20,7.40
2007,05,10,13,21,10.20
2007,05,10,13,22,6.40
2007,05,10,13,23,9.70
2007,05,10,13,24,9.90
2007,05,10,13,25,9.20
2007,05,10,13,26,11.00
2007,05,10,13,27,8.10
2007,05,10,13,28,7.70
2007,05,10,13,29,7.20
2007,05,10,13,30,6.30
2007,05,10,13,31,6.30
2007,05,10,13,32,7.40
2007,05,10,13,33,6.40
2007,05,10,13,34,9.70
2007,05,10,13,35,7.00
2007,05,10,13,36,6.00
2007,05,10,13,37,9.20
2007,05,10,13,38,11.30
2007,05,10,13,39,7.20
2007,05,10,13,40,10.80
2007,05,10,13,41,8.90
2007,05,10,13,42,8.40
2007,05,10,13,43,10.50
2007,05,10,13,44,12.40
2007,05,10,13,45,8.50
2007,05,10,13,46,16.10
2007,05,10,13,47,10.30
2007,05,10,13,48,8.80
2007,05,10,13,49,10.90
2007,05,10,13,50,6.90
2007,05,10,13,51,11.30
2007,05,10,13,52,9.70
2007,05,10,13,53,10.50
2007,05,10,13,54,9.90
2007,05,10,13,55,8.00
2007,05,10,13,56,11.30
2007,05,10,13,57,8.10
2007,05,10,13,58,8.10
2007,05,10,13,59,7.20
2007,05,10,14,00,8.00
2007,05,10,14,01,6.30
2007,05,10,14,02,11.10
2007,05,10,14,03,7.70
2007,05,10,14,04,8.80
2007,05,10,14,05,8.70
2007,05,10,14,06,7.60
2007,05,10,14,07,11.40
2007,05,10,14,08,12.20
2007,05,10,14,09,11.70
2007,05,10,14,10,8.20
2007,05,10,14,11,7.60
2007,05,10,14,12,8.80
2007,05,10,14,13,12.50
2007,05,10,14,14,10.80
2007,05,10,14,15,13.00
2007,05,10,14,16,8.30
2007,05,10,14,17,4.50
2007,05,10,14,18,6.10
2007,05,10,14,19,6.90
2007,05,10,14,20,7.50
2007,05,10,14,21,9.90
2007,05,10,14,22,11.30
2007,05,10,14,23,6.60
2007,05,10,14,24,9.20
2007,05,10,14,25,8.60
2007,05,10,14,26,13.00
2007,05,10,14,27,10.50
2007,05,10,14,28,12.70
2007,05,10,14,29,11.50
2007,05,10,14,30,9.90
2007,05,10,14,31,10.30
2007,05,10,14,32,9.10
2007,05,10,14,33,12.50
2007,05,10,14,34,11.00
2007,05,10,14,35,12.60
2007,05,10,14,36,11.20
2007,05,10,14,37,10.90
2007,05,10,14,38,7.00
2007,05,10,14,39,6.80
2007,05,10,14,40,8.80
2007,05,10,14,41,10.50
2007,05,10,14,42,12.50
2007,05,10,14,43,9.70
2007,05,10,14,44,5.50
2007,05,10,14,45,12.40
2007,05,10,14,46,7.50
2007,05,10,14,47,12.50
2007,05,10,14,48,14.90
2007,05,10,14,49,10.80
2007,05,10,14,50,12.90
2007,05,10,14,51,14.40
2007,05,10,14,52,10.00
2007,05,10,14,53,15.10
2007,05,10,14,54,18.70
2007,05,10,14,55,9.60
2007,05,10,14,56,8.30
2007,05,10,14,57,12.70
2007,05,10,14,58,12.30
2007,05,10,14,59,10.30
2007,05,10,15,00,8.50
2007,05,10,15,01,13.60
2007,05,10,15,02,7.10
2007,05,10,15,03,9.80
2007,05,10,15,04,7.50
2007,05,10,15,05,8.40
2007,05,10,15,06,6.30
2007,05,10,15,07,7.30
2007,05,10,15,08,12.30
2007,05,10,15,09,12.40
2007,05,10,15,10,11.00
2007,05,10,15,11,8.40
2007,05,10,15,12,12.90
2007,05,10,15,13,13.60
2007,05,10,15,14,11.10
2007,05,10,15,15,8.60
2007,05,10,15,16,7.70
2007,05,10,15,17,10.90
2007,05,10,15,18,7.40
2007,05,10,15,19,13.40
2007,05,10,15,20,15.80
2007,05,10,15,21,16.70
2007,05,10,15,22,13.80
2007,05,10,15,23,16.10
2007,05,10,15,24,19.10
2007,05,10,15,25,16.30
2007,05,10,15,26,18.20
2007,05,10,15,27,18.90
2007,05,10,15,28,16.40
2007,05,10,15,29,16.30
2007,05,10,15,30,18.30
2007,05,10,15,31,16.50
2007,05,10,15,32,13.60
2007,05,10,15,33,13.40
2007,05,10,15,34,21.50
2007,05,10,15,35,16.10
2007,05,10,15,36,18.00
2007,05,10,15,37,12.70
2007,05,10,15,38,16.50
2007,05,10,15,39,18.00
2007,05,10,15,40,22.20
2007,05,10,15,41,19.00
2007,05,10,15,42,22.40
2007,05,10,15,43,21.20
2007,05,10,15,44,7.90
2007,05,10,15,45,7.60
2007,05,10,15,46,8.20
2007,05,10,15,47,12.40
2007,05,10,15,48,13.80
2007,05,10,15,49,9.20
2007,05,10,15,50,15.30
2007,05,10,15,51,16.50
2007,05,10,15,52,15.80
2007,05,10,15,53,14.60
2007,05,10,15,54,16.20
2007,05,10,15,55,16.30
2007,05,10,15,56,17.70
2007,05,10,15,57,13.20
2007,05,10,15,58,16.50
2007,05,10,15,59,15.60
2007,05,10,16,00,14.40
2007,05,10,16,01,14.70
2007,05,10,16,02,16.70
2007,05,10,16,03,8.30
2007,05,10,16,04,6.80
2007,05,10,16,05,9.60
2007,05,10,16,06,14.60
2007,05,10,16,07,14.70
2007,05,10,16,08,12.60
2007,05,10,16,09,13.60
2007,05,10,16,10,14.10
2007,05,10,16,11,21.50
2007,05,10,16,12,12.60
2007,05,10,16,13,19.60
2007,05,10,16,14,18.10
2007,05,10,16,15,14.90
2007,05,10,16,16,8.60
2007,05,10,16,17,6.40
2007,05,10,16,18,12.90
2007,05,10,16,19,15.40
2007,05,10,16,20,16.90
2007,05,10,16,21,9.90
2007,05,10,16,22,15.30
2007,05,10,16,23,16.20
2007,05,10,16,24,14.90
2007,05,10,16,25,9.70
2007,05,10,16,26,12.80
2007,05,10,16,27,12.60
2007,05,10,16,28,12.60
2007,05,10,16,29,19.10
2007,05,10,16,30,19.10
2007,05,10,16,31,19.40
2007,05,10,16,32,25.70
2007,05,10,16,33,25.70
2007,05,10,16,34,25.70
2007,05,10,16,35,25.70
2007,05,10,16,36,15.20
2007,05,10,16,37,18.30
2007,05,10,16,38,17.10
2007,05,10,16,39,16.30
2007,05,10,16,40,13.50
2007,05,10,16,41,18.40
2007,05,10,16,42,18.10
2007,05,10,16,43,14.80
2007,05,10,16,44,12.40
2007,05,10,16,45,13.20
2007,05,10,16,46,13.10
2007,05,10,16,47,11.90
2007,05,10,16,48,14.50
2007,05,10,16,49,10.40
2007,05,10,16,50,20.80
2007,05,10,16,51,15.70
2007,05,10,16,52,25.30
2007,05,10,16,53,20.70
2007,05,10,16,54,20.00
2007,05,10,16,55,22.50
2007,05,10,16,56,18.30
2007,05,10,16,57,25.20
2007,05,10,16,58,21.00
2007,05,10,16,59,25.00
2007,05,10,17,00,22.30
2007,05,10,17,01,22.40
2007,05,10,17,02,21.70
2007,05,10,17,03,17.00
2007,05,10,17,04,11.10
2007,05,10,17,05,14.40
2007,05,10,17,06,12.50
2007,05,10,17,07,11.00
2007,05,10,17,08,16.50
2007,05,10,17,09,13.80
2007,05,10,17,10,14.50
2007,05,10,17,11,15.80
2007,05,10,17,12,9.10
2007,05,10,17,13,9.10
2007,05,10,17,14,15.60
2007,05,10,17,15,13.80
2007,05,10,17,16,14.10
2007,05,10,17,17,18.80
2007,05,10,17,18,17.60
2007,05,10,17,19,19.20
2007,05,10,17,20,17.00
2007,05,10,17,21,17.40
2007,05,10,17,22,14.20
2007,05,10,17,23,15.20
2007,05,10,17,24,16.00
2007,05,10,17,25,19.90
2007,05,10,17,26,18.00
2007,05,10,17,27,13.90
2007,05,10,17,28,22.00
2007,05,10,17,29,17.50
2007,05,10,17,30,13.40
2007,05,10,17,31,13.00
2007,05,10,17,32,16.20
2007,05,10,17,33,14.50
2007,05,10,17,34,14.50
2007,05,10,17,35,17.10
2007,05,10,17,36,18.70
2007,05,10,17,37,11.40
2007,05,10,17,38,15.60
2007,05,10,17,39,15.50
2007,05,10,17,40,16.10
2007,05,10,17,41,20.30
2007,05,10,17,42,22.10
2007,05,10,17,43,15.60
2007,05,10,17,44,17.90
2007,05,10,17,45,14.80
2007,05,10,17,46,8.40
2007,05,10,17,47,14.20
2007,05,10,17,48,19.00
2007,05,10,17,49,20.30
2007,05,10,17,50,16.40
2007,05,10,17,51,14.50
2007,05,10,17,52,19.30
2007,05,10,17,53,22.70
2007,05,10,17,54,17.30
2007,05,10,17,55,25.00
2007,05,10,17,56,28.00